Twin Falls, ID

1:47 PM MDT on September 30, 2016 (GMT -0600)
Joslin Field-Magic Valley Regional

Weather History for KTWF - November, 2012

Change the Weather History Date:

Friday, November 16, 2012

  Actual Average Record
Temperature  
Mean Temperature 42 °F -  
Max Temperature 54 °F 48 °F 66 °F (1999)
Min Temperature 30 °F 27 °F 1 °F (1985)
Degree Days  
Heating Degree Days 23 28  
Month to date heating degree days 323 387  
Since 1 July heating degree days 755 1006  
Cooling Degree Days 0 0  
Month to date cooling degree days 0 0  
Year to date cooling degree days 970 680  
Moisture  
Dew Point 32 °F    
Average Humidity 66    
Maximum Humidity 85    
Minimum Humidity 46    
Precipitation  
Precipitation T in 0.03 in 0.14 in (2003)
Month to date precipitation 0.13 0.57  
Year to date precipitation 7.51 8.82  
Sea Level Pressure  
Sea Level Pressure 30.01 in    
Wind  
Wind Speed 5 mph (East)    
Max Wind Speed 14 mph    
Max Gust Speed 17 mph    
Visibility 10 miles    
Events Rain    
T = Trace of Precipitation, MM = Missing Value Source: NWS Daily Summary

Daily Weather History Graph

Daily Weather History Graph

Search for Another Location

Airport or City:

Trip Planner

Search our weather history database for the weather conditions in past years. The results will help you decide how hot, cold, wet, or windy it might be!

Date:

Astronomy

Nov. 16, 2012 Rise Set
Actual Time 7:30 AM MST 5:14 PM MST
Civil Twilight 7:00 AM MST 5:44 PM MST
Nautical Twilight 6:26 AM MST 6:18 PM MST
Astronomical Twilight 5:53 AM MST 6:52 PM MST
Moon 10:30 AM MST (11/16) 8:17 PM MST (11/16)
Length of Visible Light 10h 44m
Length of Day
9h 43m
Waxing Crescent, 12% of the Moon is Illuminated
Nov 16
Waxing Crescent
Nov 20
First Quarter
Nov 28
Full
Dec 6
Last Quarter
Dec 13
New

Hourly Weather History & Observations

Time (MST) Temp. Windchill Dew Point Humidity Pressure Visibility Wind Dir Wind Speed Gust Speed Precip Events Conditions
12:53 AM 33.1 °F 26.9 °F 28.0 °F 82% 30.06 in 10.0 mi ESE 6.9 mph - N/A   Clear
1:53 AM 34.0 °F 28.8 °F 28.0 °F 79% 30.03 in 10.0 mi ESE 5.8 mph - N/A   Clear
2:53 AM 33.1 °F 26.1 °F 28.0 °F 82% 30.01 in 9.0 mi ESE 8.1 mph - N/A   Clear
3:53 AM 34.0 °F 29.8 °F 28.0 °F 79% 30.00 in 10.0 mi East 4.6 mph - N/A   Partly Cloudy
5:53 AM 35.1 °F 29.3 °F 28.9 °F 78% 30.01 in 10.0 mi ESE 6.9 mph - N/A   Overcast
6:53 AM 36.0 °F 30.3 °F 28.9 °F 76% 30.01 in 10.0 mi SE 6.9 mph - N/A   Overcast
7:53 AM 37.0 °F 31.6 °F 30.0 °F 76% 30.03 in 10.0 mi SE 6.9 mph - N/A   Mostly Cloudy
8:53 AM 44.1 °F 41.5 °F 32.0 °F 63% 30.02 in 10.0 mi South 4.6 mph - N/A   Mostly Cloudy
9:53 AM 39.9 °F 37.8 °F 32.0 °F 73% 30.05 in 10.0 mi NE 3.5 mph - N/A   Overcast
10:53 AM 42.1 °F - 32.0 °F 67% 30.06 in 10.0 mi Calm Calm - N/A   Overcast
11:53 AM 43.0 °F - 34.0 °F 71% 30.05 in 10.0 mi Calm Calm - N/A   Overcast
12:53 PM 48.9 °F - 34.0 °F 56% 30.00 in 10.0 mi ENE 3.5 mph - N/A   Overcast
1:53 PM 52.0 °F - 34.0 °F 50% 29.98 in 10.0 mi NNE 5.8 mph - N/A   Clear
2:53 PM 53.1 °F - 33.1 °F 47% 29.96 in 10.0 mi North 6.9 mph - N/A   Partly Cloudy
3:53 PM 52.0 °F - 34.0 °F 50% 29.98 in 10.0 mi NE 3.5 mph - N/A   Mostly Cloudy
4:53 PM 50.0 °F - 35.1 °F 57% 29.98 in 10.0 mi Calm Calm - N/A   Overcast
5:53 PM 48.0 °F - 34.0 °F 58% 29.98 in 10.0 mi East 4.6 mph - 0.00 in Rain Light Rain
6:53 PM 46.0 °F 43.9 °F 35.1 °F 66% 30.00 in 10.0 mi East 4.6 mph - 0.00 in Rain Light Rain
7:53 PM 46.0 °F 43.1 °F 34.0 °F 63% 29.99 in 10.0 mi East 5.8 mph - 0.00 in   Overcast
8:53 PM 44.1 °F 39.5 °F 32.0 °F 63% 29.98 in 10.0 mi ESE 8.1 mph - N/A   Partly Cloudy
9:53 PM 41.0 °F 37.1 °F 32.0 °F 70% 30.00 in 10.0 mi SE 5.8 mph - N/A   Clear
10:53 PM 39.9 °F - 30.9 °F 70% 30.01 in 10.0 mi Calm Calm - N/A   Clear
11:53 PM 45.0 °F 43.5 °F 30.9 °F 58% 29.99 in 10.0 mi SSE 3.5 mph - N/A   Mostly Cloudy